TimeCST,TemperatureF,Dew PointF,Humidity,Sea Level PressureIn,VisibilityMPH,Wind Direction,Wind SpeedMPH,Gust SpeedMPH,PrecipitationIn,Events,Conditions,WindDirDegrees,DateUTC
12:53 AM,30.0,26.1,85,30.09,10.0,North,5.8,-,N/A,,Clear,350,2013-02-23 06:53:00
1:53 AM,30.0,28.0,92,30.09,10.0,North,5.8,-,N/A,,Clear,350,2013-02-23 07:53:00
2:53 AM,30.0,27.0,88,30.08,10.0,North,6.9,-,N/A,,Clear,350,2013-02-23 08:53:00
3:53 AM,30.0,27.0,88,30.08,10.0,North,6.9,-,N/A,,Clear,360,2013-02-23 09:53:00
4:53 AM,30.0,26.1,85,30.07,10.0,North,8.1,-,N/A,,Clear,10,2013-02-23 10:53:00
5:53 AM,30.0,25.0,82,30.07,10.0,NNE,5.8,-,N/A,,Clear,30,2013-02-23 11:53:00
6:53 AM,28.0,25.0,88,30.07,10.0,North,4.6,-,N/A,,Clear,360,2013-02-23 12:53:00
7:53 AM,30.9,27.0,85,30.08,10.0,North,8.1,-,N/A,,Clear,10,2013-02-23 13:53:00
8:53 AM,33.1,27.0,78,30.07,10.0,NE,9.2,-,N/A,,Clear,40,2013-02-23 14:53:00
9:53 AM,37.0,28.0,70,30.07,10.0,NE,8.1,-,N/A,,Clear,40,2013-02-23 15:53:00
10:53 AM,39.0,27.0,62,30.10,10.0,North,5.8,-,N/A,,Clear,10,2013-02-23 16:53:00
11:53 AM,39.0,27.0,62,30.05,10.0,Calm,Calm,-,N/A,,Clear,0,2013-02-23 17:53:00
12:53 PM,43.0,28.9,58,30.03,10.0,Variable,4.6,-,N/A,,Clear,0,2013-02-23 18:53:00
1:53 PM,44.1,30.9,60,30.02,10.0,Variable,6.9,-,0.01,,Clear,0,2013-02-23 19:53:00
2:53 PM,45.0,30.9,58,30.01,10.0,North,5.8,-,N/A,,Clear,350,2013-02-23 20:53:00
3:53 PM,45.0,30.0,56,30.01,10.0,NNW,5.8,-,N/A,,Clear,340,2013-02-23 21:53:00
4:53 PM,43.0,30.0,60,30.01,10.0,NW,5.8,-,N/A,,Clear,310,2013-02-23 22:53:00
5:53 PM,39.0,30.0,70,30.01,10.0,Calm,Calm,-,N/A,,Clear,0,2013-02-23 23:53:00
6:53 PM,39.0,32.0,76,30.03,10.0,East,3.5,-,N/A,,Clear,80,2013-02-24 00:53:00
7:53 PM,36.0,30.9,82,30.02,10.0,ENE,4.6,-,N/A,,Clear,60,2013-02-24 01:53:00
9:53 PM,34.0,30.9,89,30.04,8.0,NE,3.5,-,N/A,,Clear,50,2013-02-24 03:53:00
10:53 PM,34.0,30.0,85,30.04,10.0,Calm,Calm,-,N/A,,Clear,0,2013-02-24 04:53:00
11:53 PM,33.1,28.9,85,30.05,10.0,Calm,Calm,-,N/A,,Clear,0,2013-02-24 05:53:00